Flag for Canada Weather past 2 weeks in Mount Pearl, Newfoundland and Labrador, Canada

Now
32 °F

Passing clouds.


Feels Like: 19 °F
Forecast: N/A
Wind: 25 mph from West

Location: St. John's

Current Time: Dec 27, 2014 at 8:17:08 PM

Latest Report: Dec 27, 2014 at 7:30 PM


Visibility: 15 mi

Pressure: 29.67 "Hg

Humidity: 69%

Dew point: 23 °F

Location of Mount PearlLocation

Historic Weather in Mount Pearl — Graph

°F

Mount Pearl temperature yesterday

Maximum temperature yesterday: 43 °F (at 9:25 AM)
Minimum temperature yesterday: 34 °F (at 6:30 PM)
Average temperature yesterday: 39 °F

Past Weeks' High & Low Weather Summary

 TemperatureHumidityPressure
High54 °F (Dec 13, 11:30 AM)100% (Dec 12, 6:30 PM)30.52 "Hg (Dec 12, 6:30 PM)
Low25 °F (Dec 21, 6:30 PM)60% (Dec 27, 11:30 AM)29.35 "Hg (Dec 19, 5:30 AM)
Average36 °F91%29.99 "Hg
* Reported Dec 12 6:30 PM — Dec 27 6:30 PM, Mount Pearl, Weather by CustomWeather, © 2014

Note: Actual official high and low records may vary slightly from our data, if they occured in-between our weather recording intervals... More about our weather records

Advertising

Mount Pearl weather history for previous 24 hours

 ConditionsComfort  
Time TempWeatherWind HumidityBarometerVisibility
6:30 PM
Dec 27
30 °FPassing clouds.17 mph80%29.65 "Hg15 mi
6:18 PM30 °FPassing clouds.17 mph80%29.65 "Hg15 mi
5:30 PM32 °FPartly cloudy.16 mph87%29.64 "Hg15 mi
4:30 PM34 °FSnow flurries. Overcast.16 mph81%29.64 "Hg15 mi
3:30 PM34 °FOvercast.16 mph70%29.63 "Hg15 mi
2:30 PM36 °FOvercast.17 mph60%29.62 "Hg15 mi
1:30 PM36 °FOvercast.17 mph65%29.61 "Hg15 mi
12:30 PM36 °FPartly sunny.16 mph60%29.62 "Hg15 mi
11:30 AM36 °FPartly sunny.16 mph60%29.64 "Hg15 mi
10:30 AM36 °FPartly sunny.18 mph65%29.65 "Hg15 mi
9:30 AM36 °FPartly sunny.15 mph70%29.66 "Hg15 mi
8:30 AM34 °FPartly sunny.10 mph75%29.66 "Hg15 mi
7:30 AM34 °FOvercast.10 mph81%29.66 "Hg15 mi
6:30 AM32 °FPassing clouds.13 mph87%29.65 "Hg15 mi
5:30 AM30 °FPassing clouds.7 mph93%29.64 "Hg15 mi
4:30 AM32 °FPassing clouds.9 mph87%29.64 "Hg15 mi
4:15 AM34 °FOvercast.9 mph81%29.64 "Hg15 mi
3:30 AM34 °FSnow flurries. Passing clouds.9 mph81%29.64 "Hg15 mi
2:30 AM32 °FPassing clouds.15 mph87%29.63 "Hg15 mi
1:30 AM34 °FPassing clouds.12 mph81%29.62 "Hg15 mi
12:30 AM34 °FPassing clouds.13 mph87%29.62 "Hg15 mi
11:30 PM
Dec 26
34 °FPassing clouds.16 mph87%29.63 "Hg15 mi
10:30 PM34 °FPassing clouds.17 mph87%29.64 "Hg15 mi
9:30 PM34 °FPassing clouds.15 mph87%29.65 "Hg15 mi
8:30 PM36 °FPassing clouds.16 mph87%29.65 "Hg15 mi
Weather by CustomWeather, © 2014

See weather overviewHow to use our weather pages